FW5644 Weather Reports


time (UTC)temp
C
wind
direction
speed
KPH
gust
KPH
rain 1hr
cm
rain 24hr
cm
rain mn
cm
humidity
%
barometer
mb
20200407034611 18 176 14.5 0.0 0.00 0.00 0.00 79 1002.3
20200407033100 18 360 9.7 0.0 0.00 0.00 0.00 78 1002.3
20200407031656 18 148 11.3 0.0 0.00 0.00 0.00 78 1002.4
20200407024647 18 136 9.7 0.0 0.00 0.00 0.00 76 1002.4
20200407023141 18 138 9.7 0.0 0.00 0.00 0.00 75 1002.3
20200407021613 18 126 9.7 0.0 0.00 0.00 0.00 74 1002.2
20200407014625 19 134 9.7 0.0 0.00 0.00 0.00 72 1001.7
20200407013123 20 128 11.3 0.0 0.00 0.00 0.00 71 1001.5
20200407011600 20 126 9.7 0.0 0.00 0.00 0.00 69 1001.4
20200407004617 21 129 11.3 0.0 0.00 0.00 0.00 64 1001.2
20200407003133 22 134 9.7 0.0 0.00 0.00 0.00 62 1001.3
20200407001701 22 143 14.5 0.0 0.00 0.00 0.00 61 1001.3
20200406234704 23 146 16.1 0.0 0.00 0.00 0.00 59 1001.5
20200406233257 23 130 14.5 0.0 0.00 0.00 0.00 59 1001.4
20200406231631 23 146 17.7 0.0 0.00 0.00 0.00 59 1001.5
20200406224619 23 136 17.7 0.0 0.00 0.00 0.00 61 1001.7
20200406223043 22 123 16.1 0.0 0.00 0.00 0.00 62 1002.0
20200406221627 22 129 19.3 0.0 0.00 0.00 0.00 63 1002.2
20200406214704 22 127 17.7 0.0 0.00 0.00 0.00 63 1002.5
20200406213045 21 121 16.1 0.0 0.00 0.00 0.00 64 1002.5
20200406211603 21 128 17.7 0.0 0.00 0.00 0.00 65 1002.7
20200406204532 20 119 16.1 0.0 0.00 0.00 0.00 71 1003.2
20200406203129 20 120 14.5 0.0 0.00 0.00 0.00 72 1003.5
20200406201607 19 121 14.5 0.0 0.00 0.00 0.00 73 1003.9
20200406194539 19 155 12.9 0.0 0.00 0.00 0.00 72 1004.3
20200406193038 19 150 12.9 0.0 0.00 0.00 0.00 72 1004.4
20200406191517 19 169 16.1 0.0 0.00 0.00 0.00 72 1004.4
20200406184529 18 163 19.3 0.0 0.00 0.00 0.00 74 1004.6
20200406183026 18 146 14.5 0.0 0.00 0.00 0.00 76 1004.8
20200406181517 18 189 17.7 0.0 0.00 0.00 0.00 76 1005.0
20200406174507 17 165 14.5 0.0 0.00 0.00 0.00 80 1005.3
20200406173131 16 139 16.1 0.0 0.00 0.00 0.00 83 1005.4
20200406171729 16 142 16.1 0.0 0.00 0.00 0.00 83 1005.8
20200406164610 16 148 14.5 0.0 0.00 0.00 0.00 84 1006.0
20200406163128 16 149 16.1 0.0 0.00 0.00 0.00 85 1006.1
20200406161751 15 151 20.9 0.0 0.00 0.00 0.00 86 1006.3
20200406154717 15 173 14.5 0.0 0.00 0.00 0.00 88 1006.1
20200406153117 15 147 17.7 0.0 0.00 0.00 0.00 89 1006.4
20200406151740 14 113 16.1 0.0 0.00 0.00 0.00 90 1006.5
20200406144625 13 136 17.7 0.0 0.00 0.00 0.00 90 1006.6
20200406143106 13 126 16.1 0.0 0.00 0.00 0.00 90 1006.8
20200406141559 13 146 17.7 0.0 0.00 0.00 0.00 90 1006.9
20200406134552 13 134 14.5 0.0 0.00 0.00 0.00 90 1007.3
20200406133054 13 130 12.9 0.0 0.00 0.00 0.00 90 1007.4
20200406131557 12 136 11.3 0.0 0.00 0.00 0.00 90 1007.5
20200406124552 12 119 11.3 0.0 0.00 0.00 0.00 91 1007.2
20200406123043 12 121 11.3 0.0 0.00 0.00 0.00 91 1007.3
20200406121558 12 131 8.0 0.0 0.00 0.00 0.00 91 1007.5
20200406114603 12 132 11.3 0.0 0.00 0.00 0.00 90 1007.6
20200406113112 12 136 9.7 0.0 0.00 0.00 0.00 90 1007.7
20200406111634 11 113 11.3 0.0 0.00 0.00 0.00 90 1007.4
20200406104553 11 127 12.9 0.0 0.00 0.00 0.00 89 1007.4
20200406103045 11 123 12.9 0.0 0.00 0.00 0.00 89 1007.3
20200406101555 11 125 12.9 0.0 0.00 0.00 0.00 89 1007.4
20200406094554 11 136 16.1 0.0 0.00 0.00 0.00 88 1007.8
20200406093110 11 130 16.1 0.0 0.00 0.00 0.00 87 1008.1
20200406084529 11 131 16.1 0.0 0.00 0.00 0.00 86 1008.5
20200406083022 11 125 12.9 0.0 0.00 0.00 0.00 85 1008.9
20200406081516 11 126 11.3 0.0 0.00 0.00 0.00 84 1009.1
20200406074511 11 119 12.9 0.0 0.00 0.00 0.00 83 1009.3
20200406073013 11 123 14.5 0.0 0.00 0.00 0.00 83 1009.7
20200406071508 11 128 14.5 0.0 0.00 0.00 0.00 82 1009.9
20200406064506 11 117 14.5 0.0 0.00 0.00 0.00 81 1010.4
20200406063011 11 129 14.5 0.0 0.00 0.00 0.00 80 1010.4
20200406061502 11 125 19.3 0.0 0.00 0.00 0.00 79 1010.5
20200406054502 11 126 16.1 0.0 0.00 0.00 0.00 78 1011.0
20200406053003 11 130 14.5 0.0 0.00 0.00 0.00 78 1010.9
20200406051502 11 128 16.1 0.0 0.00 0.00 0.00 77 1010.8
20200406044502 12 134 17.7 0.0 0.00 0.00 0.00 75 1011.1
20200406043152 12 135 16.1 0.0 0.00 0.00 0.00 74 1011.0
20200406041623 12 118 16.1 0.0 0.00 0.00 0.00 73 1011.1